Location: Newark
(20.0000°S, 47.0000°E)
Time: 12:21:20
(UTC+00:00)

N. Korean satellite - Pass Details

Date: 15 August 2020
Orbit: 455 x 503 km, 97.2° (Epoch: 20 September)

Event Time Altitude Azimuth Distance (km) Brightness Sun altitude
Rises 01:31:51 0° 25° (NNE) 2,571 10.7 -24.3°
Reaches altitude 10° 01:34:00 10° 33° (NNE) 1,700 9.8 -23.8°
Maximum altitude 01:37:27 40° 103° (ESE) 758 7.9 -23.0°
Drops below altitude 10° 01:40:57 10° 173° (S) 1,727 9.3 -22.2°
Enters shadow 01:41:48 - 177° (S) 2,072 9.7 -22.0°
